Location: Newark
(45.6333°N, 17.8833°E)
Time: 05:00:05
(UTC+00:00)

ISS - Visible Passes

Search period start: 18 September 2019 00:00
Search period end: 28 September 2019 00:00
Orbit: 411 x 421 km, 51.6° (Epoch: 18 September)

Date Brightness Start Highest point End Pass type
(mag) Time Alt. Az. Time Alt. Az. Time Alt. Az.
18 Sep -1.6 17:51:16 10° SSE 17:51:57 11° SE 17:51:57 11° SE visible
19 Sep -2.8 18:37:04 10° SW 18:39:16 33° S 18:39:16 33° S visible
20 Sep -2.8 17:48:58 10° SSW 17:51:51 28° SE 17:53:21 20° E visible
20 Sep -1.2 19:25:11 10° W 19:26:18 19° W 19:26:18 19° W visible
21 Sep -3.8 18:36:35 10° WSW 18:39:54 78° NNW 18:40:10 70° NNE visible
22 Sep -3.8 17:48:05 10° SW 17:51:24 69° SSE 17:53:51 17° ENE visible
22 Sep -1.2 19:25:15 10° W 19:26:46 22° WNW 19:26:46 22° WNW visible
23 Sep -2.8 18:36:30 10° W 18:39:41 42° NNW 18:40:19 37° NNE visible
24 Sep -3.2 17:47:48 10° WSW 17:51:04 56° NNW 17:53:47 14° NE visible
24 Sep -1.0 19:25:19 10° WNW 19:26:40 19° NW 19:26:40 19° NW visible
25 Sep -2.3 18:36:33 10° WNW 18:39:32 30° N 18:40:02 28° N visible
26 Sep -2.4 17:47:45 10° W 17:50:50 35° NNW 17:53:20 14° NE visible
26 Sep -0.8 19:25:11 10° WNW 19:26:13 17° NW 19:26:13 17° NW visible
27 Sep -2.2 18:36:30 10° WNW 18:39:25 27° N 18:39:29 27° N visible
